| time (UTC) | temp C | wind direction | speed KPH | gust KPH | rain 1hr cm | rain 24hr cm | rain mn cm | humidity % | barometer mb |
| 20260510060721 | 25 | 67 | 0.0 | 6.4 | 0.00 | 0.00 | 0.00 | 36 | 1072.1 |
| 20260510060320 | 25 | 67 | 1.6 | 4.8 | 0.00 | 0.00 | 0.00 | 36 | 1036.5 |
| 20260510060221 | 25 | 45 | 3.2 | 4.8 | 0.00 | 0.00 | 0.00 | 37 | 1055.4 |
| 20260510055721 | 25 | 67 | 3.2 | 6.4 | 0.00 | 0.00 | 0.00 | 37 | 1027.1 |
| 20260510055221 | 25 | 22 | 3.2 | 4.8 | 0.00 | 0.00 | 0.00 | 37 | 1075.3 |
| 20260510054721 | 24 | 67 | 0.0 | 4.8 | 0.00 | 0.00 | 0.00 | 38 | 1087.7 |
| 20260510054221 | 24 | 45 | 3.2 | 6.4 | 0.00 | 0.00 | 0.00 | 38 | 997.8 |
| 20260510053721 | 24 | 45 | 1.6 | 4.8 | 0.00 | 0.00 | 0.00 | 39 | 1084.7 |
| 20260510053221 | 24 | 67 | 0.0 | 3.2 | 0.00 | 0.00 | 0.00 | 40 | 1062.7 |
| 20260510053020 | 23 | 45 | 1.6 | 3.2 | 0.00 | 0.00 | 0.00 | 40 | 1078.4 |
| 20260510052721 | 23 | 67 | 3.2 | 4.8 | 0.00 | 0.00 | 0.00 | 41 | 1075.2 |
| 20260510052221 | 23 | 67 | 3.2 | 4.8 | 0.00 | 0.00 | 0.00 | 42 | 1075.2 |
| 20260510051721 | 23 | 180 | 0.0 | 3.2 | 0.00 | 0.00 | 0.00 | 43 | 1081.5 |
| 20260510051221 | 22 | 112 | 3.2 | 4.8 | 0.00 | 0.00 | 0.00 | 45 | 1090.9 |
| 20260510050721 | 22 | 135 | 0.0 | 4.8 | 0.00 | 0.00 | 0.00 | 47 | 1090.9 |
| 20260510050221 | 20 | 135 | 0.0 | 3.2 | 0.00 | 0.00 | 0.00 | 49 | 1072.1 |
| 20260510045720 | 19 | 135 | 0.0 | 3.2 | 0.00 | 0.00 | 0.00 | 53 | 1062.7 |
| 20260510045221 | 18 | 67 | 0.0 | 1.6 | 0.00 | 0.00 | 0.00 | 56 | 1075.2 |
| 20260510044721 | 17 | 45 | 1.6 | 3.2 | 0.00 | 0.00 | 0.00 | 61 | 1078.4 |
| 20260510044221 | 15 | 67 | 0.0 | 3.2 | 0.00 | 0.00 | 0.00 | 66 | 1072.1 |
| 20260510043721 | 12 | 67 | 1.6 | 3.2 | 0.00 | 0.00 | 0.00 | 70 | 1053.2 |
| 20260510043221 | 11 | 135 | 0.0 | 3.2 | 0.00 | 0.00 | 0.00 | 68 | 1084.6 |
| 20260510042721 | 12 | 112 | 0.0 | 1.6 | 0.00 | 0.00 | 0.00 | 68 | 1027.1 |
| 20260510042420 | 13 | 45 | 0.0 | 0.0 | 0.00 | 0.00 | 0.00 | 69 | 1053.2 |
| 20260510042221 | 13 | 112 | 0.0 | 0.0 | 0.00 | 0.00 | 0.00 | 71 | 1059.5 |
| 20260510041721 | 13 | 45 | 0.0 | 0.0 | 0.00 | 0.00 | 0.00 | 79 | 1072.1 |
| 20260510041221 | 11 | 45 | 0.0 | 1.6 | 0.00 | 0.00 | 0.00 | 85 | 1059.5 |
| 20260510040721 | 10 | 67 | 0.0 | 1.6 | 0.00 | 0.00 | 0.00 | 88 | 1075.2 |
| 20260510040221 | 8 | 45 | 1.6 | 1.6 | 0.00 | 0.00 | 0.00 | 89 | 1030.3 |
| 20260510035721 | 6 | 45 | 0.0 | 1.6 | 0.00 | 0.00 | 0.00 | 87 | 1062.6 |
| 20260510035221 | 5 | 337 | 0.0 | 0.0 | 0.00 | 0.00 | 0.00 | 85 | 1065.8 |
| 20260510035120 | 5 | 315 | 0.0 | 0.0 | 0.00 | 0.00 | 0.00 | 85 | 1069.0 |
| 20260510034721 | 5 | 202 | 0.0 | 0.0 | 0.00 | 0.00 | 0.00 | 84 | 1065.8 |
| 20260510034221 | 5 | 157 | 0.0 | 0.0 | 0.00 | 0.00 | 0.00 | 84 | 1059.8 |
| 20260510033721 | 4 | 135 | 0.0 | 0.0 | 0.00 | 0.00 | 0.00 | 83 | 1062.7 |
| 20260510033221 | 3 | 135 | 0.0 | 0.0 | 0.00 | 0.00 | 0.00 | 83 | 1078.3 |
| 20260510032721 | 3 | 157 | 0.0 | 0.0 | 0.00 | 0.00 | 0.00 | 83 | 1075.2 |
| 20260510032221 | 3 | 112 | 0.0 | 0.0 | 0.00 | 0.00 | 0.00 | 83 | 1072.2 |
| 20260510031820 | 3 | 90 | 0.0 | 0.0 | 0.00 | 0.00 | 0.00 | 83 | 1078.3 |
| 20260510031721 | 3 | 90 | 0.0 | 0.0 | 0.00 | 0.00 | 0.00 | 82 | 1024.0 |
| 20260510031221 | 3 | 67 | 0.0 | 0.0 | 0.00 | 0.00 | 0.00 | 82 | 1065.8 |
| 20260510030721 | 3 | 0 | 0.0 | 0.0 | 0.00 | 0.00 | 0.00 | 82 | 1087.8 |
| 20260510030221 | 3 | 337 | 0.0 | 0.0 | 0.00 | 0.00 | 0.00 | 82 | 1075.2 |
| 20260510025721 | 3 | 270 | 0.0 | 0.0 | 0.00 | 0.00 | 0.00 | 82 | 1065.8 |
| 20260510025221 | 3 | 112 | 0.0 | 0.0 | 0.00 | 0.00 | 0.00 | 82 | 1059.5 |
| 20260510024721 | 3 | 157 | 0.0 | 0.0 | 0.00 | 0.00 | 0.00 | 82 | 1042.8 |
| 20260510024520 | 3 | 67 | 0.0 | 0.0 | 0.00 | 0.00 | 0.00 | 82 | 1042.8 |
| 20260510024221 | 3 | 112 | 0.0 | 0.0 | 0.00 | 0.00 | 0.00 | 82 | 1056.4 |
| 20260510023721 | 3 | 112 | 0.0 | 0.0 | 0.00 | 0.00 | 0.00 | 82 | 1072.1 |
| 20260510023221 | 3 | 112 | 0.0 | 0.0 | 0.00 | 0.00 | 0.00 | 82 | 1056.4 |
| 20260510022721 | 4 | 112 | 0.0 | 0.0 | 0.00 | 0.00 | 0.00 | 82 | 1039.7 |
| 20260510022221 | 4 | 112 | 0.0 | 0.0 | 0.00 | 0.00 | 0.00 | 82 | 1049.1 |
| 20260510021722 | 4 | 112 | 0.0 | 0.0 | 0.00 | 0.00 | 0.00 | 82 | 1050.0 |
| 20260510021220 | 4 | 112 | 0.0 | 0.0 | 0.00 | 0.00 | 0.00 | 82 | 1065.8 |
| 20260510020721 | 4 | 67 | 0.0 | 0.0 | 0.00 | 0.00 | 0.00 | 82 | 1059.5 |
| 20260510020221 | 4 | 135 | 0.0 | 0.0 | 0.00 | 0.00 | 0.00 | 82 | 1087.8 |
| 20260510015721 | 4 | 135 | 0.0 | 0.0 | 0.00 | 0.00 | 0.00 | 82 | 1072.1 |
| 20260510015221 | 4 | 67 | 0.0 | 0.0 | 0.00 | 0.00 | 0.00 | 82 | 1065.8 |
| 20260510014721 | 4 | 67 | 0.0 | 0.0 | 0.00 | 0.00 | 0.00 | 82 | 1069.0 |
| 20260510014221 | 5 | 112 | 0.0 | 0.0 | 0.00 | 0.00 | 0.00 | 82 | 1072.1 |
| 20260510013920 | 5 | 112 | 0.0 | 0.0 | 0.00 | 0.00 | 0.00 | 82 | 1059.5 |
| 20260510013721 | 5 | 90 | 0.0 | 0.0 | 0.00 | 0.00 | 0.00 | 82 | 1075.2 |
| 20260510013221 | 5 | 90 | 0.0 | 0.0 | 0.00 | 0.00 | 0.00 | 82 | 1078.4 |
| 20260510012722 | 5 | 135 | 0.0 | 0.0 | 0.00 | 0.00 | 0.00 | 82 | 1078.4 |
| 20260510012221 | 4 | 112 | 0.0 | 0.0 | 0.00 | 0.00 | 0.00 | 81 | 1100.3 |
| 20260510011721 | 4 | 112 | 0.0 | 0.0 | 0.00 | 0.00 | 0.00 | 81 | 1084.7 |
| 20260510011221 | 4 | 157 | 0.0 | 0.0 | 0.00 | 0.00 | 0.00 | 81 | 1020.8 |
| 20260510010721 | 4 | 157 | 0.0 | 0.0 | 0.00 | 0.00 | 0.00 | 81 | 1065.8 |
| 20260510010620 | 4 | 157 | 0.0 | 0.0 | 0.00 | 0.00 | 0.00 | 81 | 1075.2 |
| 20260510010221 | 4 | 135 | 0.0 | 0.0 | 0.00 | 0.00 | 0.00 | 81 | 1007.3 |
| 20260510005721 | 4 | 247 | 0.0 | 0.0 | 0.00 | 0.00 | 0.00 | 80 | 1081.5 |
| 20260510005221 | 4 | 180 | 0.0 | 0.0 | 0.00 | 0.00 | 0.00 | 80 | 1081.5 |
| 20260510004721 | 4 | 180 | 0.0 | 0.0 | 0.00 | 0.00 | 0.00 | 80 | 1042.9 |
| 20260510004221 | 4 | 157 | 0.0 | 0.0 | 0.00 | 0.00 | 0.00 | 80 | 1075.2 |
| 20260510003721 | 4 | 157 | 0.0 | 0.0 | 0.00 | 0.00 | 0.00 | 80 | 1081.5 |
| 20260510003320 | 5 | 225 | 0.0 | 0.0 | 0.00 | 0.00 | 0.00 | 80 | 1033.4 |
| 20260510003221 | 5 | 202 | 0.0 | 0.0 | 0.00 | 0.00 | 0.00 | 80 | 1078.4 |
| 20260510002721 | 5 | 202 | 0.0 | 0.0 | 0.00 | 0.00 | 0.00 | 80 | 1097.2 |
| 20260510002221 | 5 | 180 | 0.0 | 0.0 | 0.00 | 0.00 | 0.00 | 80 | 1058.5 |
| 20260510001730 | 5 | 157 | 80.5 | 0.0 | 0.00 | 0.00 | 0.00 | 80 | 994.7 |
| 20260510001722 | 5 | 157 | 0.0 | 0.0 | 0.00 | 0.00 | 0.00 | 80 | 994.7 |
| 20260510001221 | 5 | 157 | 0.0 | 0.0 | 0.00 | 0.00 | 0.00 | 80 | 1033.4 |
| 20260510000722 | 5 | 180 | 0.0 | 0.0 | 0.00 | 0.00 | 0.00 | 79 | 1090.9 |
| 20260510000221 | 5 | 180 | 0.0 | 0.0 | 0.00 | 0.00 | 0.00 | 79 | 1056.2 |
| 20260510000021 | 5 | 180 | 0.0 | 0.0 | 0.00 | 0.00 | 0.00 | 79 | 1084.7 |
| 20260509235721 | 5 | 180 | 0.0 | 0.0 | 0.00 | 0.00 | 0.00 | 79 | 1049.1 |
| 20260509235221 | 5 | 202 | 0.0 | 0.0 | 0.00 | 0.00 | 0.00 | 79 | 1027.1 |
| 20260509234721 | 5 | 202 | 0.0 | 0.0 | 0.00 | 0.00 | 0.00 | 79 | 1036.5 |
| 20260509234221 | 5 | 180 | 0.0 | 0.0 | 0.00 | 0.00 | 0.00 | 79 | 1078.4 |
| 20260509233721 | 5 | 180 | 0.0 | 0.0 | 0.00 | 0.00 | 0.00 | 79 | 1072.1 |
| 20260509233221 | 5 | 180 | 0.0 | 0.0 | 0.00 | 0.00 | 0.00 | 78 | 1039.7 |
| 20260509232721 | 5 | 157 | 0.0 | 0.0 | 0.00 | 0.00 | 0.00 | 78 | 982.2 |
| 20260509232221 | 5 | 135 | 0.0 | 0.0 | 0.00 | 0.00 | 0.00 | 78 | 1059.3 |
| 20260509231722 | 5 | 135 | 0.0 | 0.0 | 0.00 | 0.00 | 0.00 | 78 | 1084.7 |
| 20260509231221 | 5 | 135 | 0.0 | 0.0 | 0.00 | 0.00 | 0.00 | 78 | 1078.4 |
| 20260509230722 | 5 | 135 | 0.0 | 0.0 | 0.00 | 0.00 | 0.00 | 78 | 1049.1 |
| 20260509230222 | 5 | 135 | 0.0 | 0.0 | 0.00 | 0.00 | 0.00 | 78 | 1081.5 |
| 20260509225722 | 6 | 112 | 0.0 | 0.0 | 0.00 | 0.00 | 0.00 | 78 | 1010.4 |
| 20260509225421 | 6 | 135 | 0.0 | 0.0 | 0.00 | 0.00 | 0.00 | 77 | 1039.7 |
| 20260509225222 | 6 | 135 | 0.0 | 0.0 | 0.00 | 0.00 | 0.00 | 77 | 1062.6 |
| 20260509224722 | 6 | 135 | 0.0 | 0.0 | 0.00 | 0.00 | 0.00 | 77 | 1078.4 |
| 20260509224222 | 6 | 135 | 0.0 | 0.0 | 0.00 | 0.00 | 0.00 | 77 | 1075.2 |
| 20260509223722 | 6 | 112 | 0.0 | 0.0 | 0.00 | 0.00 | 0.00 | 77 | 1062.7 |
| 20260509223222 | 6 | 135 | 0.0 | 0.0 | 0.00 | 0.00 | 0.00 | 77 | 1065.8 |
| 20260509222731 | 6 | 112 | 0.0 | 0.0 | 0.00 | 0.00 | 0.00 | 77 | 997.9 |
| 20260509222722 | 6 | 112 | 0.0 | 0.0 | 0.00 | 0.00 | 0.00 | 77 | 997.9 |
| 20260509222222 | 6 | 135 | 0.0 | 0.0 | 0.00 | 0.00 | 0.00 | 77 | 1081.5 |
| 20260509222121 | 6 | 135 | 0.0 | 0.0 | 0.00 | 0.00 | 0.00 | 77 | 1078.4 |
| 20260509221722 | 6 | 157 | 0.0 | 0.0 | 0.00 | 0.00 | 0.00 | 77 | 1084.7 |
| 20260509221222 | 6 | 135 | 0.0 | 0.0 | 0.00 | 0.00 | 0.00 | 77 | 1027.1 |
| 20260509220722 | 6 | 112 | 0.0 | 0.0 | 0.00 | 0.00 | 0.00 | 77 | 1069.0 |
| 20260509220222 | 6 | 67 | 0.0 | 0.0 | 0.00 | 0.00 | 0.00 | 77 | 1049.1 |
| 20260509215722 | 6 | 67 | 0.0 | 0.0 | 0.00 | 0.00 | 0.00 | 77 | 1047.0 |
| 20260509215222 | 6 | 135 | 0.0 | 0.0 | 0.00 | 0.00 | 0.00 | 77 | 959.2 |
| 20260509214821 | 6 | 112 | 0.0 | 0.0 | 0.00 | 0.00 | 0.00 | 77 | 1016.6 |
| 20260509214722 | 6 | 112 | 0.0 | 0.0 | 0.00 | 0.00 | 0.00 | 77 | 920.4 |
| 20260509214222 | 6 | 90 | 0.0 | 0.0 | 0.00 | 0.00 | 0.00 | 77 | 1039.7 |
| 20260509213722 | 6 | 112 | 0.0 | 0.0 | 0.00 | 0.00 | 0.00 | 76 | 1097.2 |
| 20260509213222 | 6 | 45 | 0.0 | 0.0 | 0.00 | 0.00 | 0.00 | 76 | 988.4 |
| 20260509212722 | 6 | 112 | 0.0 | 0.0 | 0.00 | 0.00 | 0.00 | 76 | 1097.2 |
| 20260509212222 | 6 | 112 | 0.0 | 0.0 | 0.00 | 0.00 | 0.00 | 76 | 1081.5 |
| 20260509211722 | 6 | 112 | 0.0 | 0.0 | 0.00 | 0.00 | 0.00 | 75 | 1019.6 |
| 20260509211521 | 6 | 112 | 0.0 | 0.0 | 0.00 | 0.00 | 0.00 | 75 | 1058.5 |
| 20260509211222 | 6 | 90 | 0.0 | 0.0 | 0.00 | 0.00 | 0.00 | 75 | 1049.1 |
| 20260509210722 | 6 | 90 | 0.0 | 0.0 | 0.00 | 0.00 | 0.00 | 75 | 1045.9 |
| 20260509210222 | 6 | 112 | 0.0 | 0.0 | 0.00 | 0.00 | 0.00 | 74 | 1052.2 |
| 20260509205722 | 6 | 112 | 0.0 | 0.0 | 0.00 | 0.00 | 0.00 | 74 | 971.0 |
| 20260509205222 | 6 | 67 | 0.0 | 0.0 | 0.00 | 0.00 | 0.00 | 74 | 1075.3 |
| 20260509204722 | 6 | 112 | 0.0 | 1.6 | 0.00 | 0.00 | 0.00 | 73 | 1081.5 |
| 20260509204221 | 7 | 135 | 0.0 | 1.6 | 0.00 | 0.00 | 0.00 | 73 | 997.9 |
| 20260509203722 | 7 | 112 | 0.0 | 3.2 | 0.00 | 0.00 | 0.00 | 73 | 1052.2 |
| 20260509203222 | 7 | 135 | 0.0 | 0.0 | 0.00 | 0.00 | 0.00 | 73 | 1037.5 |
| 20260509202722 | 7 | 90 | 0.0 | 0.0 | 0.00 | 0.00 | 0.00 | 72 | 1042.8 |
| 20260509202222 | 7 | 112 | 1.6 | 1.6 | 0.00 | 0.00 | 0.00 | 72 | 1055.4 |
| 20260509201722 | 7 | 90 | 0.0 | 0.0 | 0.00 | 0.00 | 0.00 | 71 | 955.4 |
| 20260509201222 | 7 | 90 | 0.0 | 0.0 | 0.00 | 0.00 | 0.00 | 71 | 1042.8 |
| 20260509200921 | 7 | 90 | 0.0 | 1.6 | 0.00 | 0.00 | 0.00 | 71 | 1082.2 |
| 20260509200722 | 7 | 90 | 0.0 | 1.6 | 0.00 | 0.00 | 0.00 | 71 | 1052.2 |
| 20260509200222 | 7 | 45 | 0.0 | 1.6 | 0.00 | 0.00 | 0.00 | 70 | 1013.5 |
| 20260509195722 | 8 | 112 | 0.0 | 0.0 | 0.00 | 0.00 | 0.00 | 69 | 1090.9 |
| 20260509195222 | 8 | 112 | 0.0 | 0.0 | 0.00 | 0.00 | 0.00 | 70 | 1024.3 |
| 20260509194722 | 8 | 112 | 0.0 | 1.6 | 0.00 | 0.00 | 0.00 | 69 | 997.5 |
| 20260509194222 | 8 | 90 | 0.0 | 3.2 | 0.00 | 0.00 | 0.00 | 69 | 1087.8 |
| 20260509193722 | 8 | 112 | 1.6 | 3.2 | 0.00 | 0.00 | 0.00 | 69 | 1087.8 |
| 20260509193621 | 8 | 67 | 3.2 | 3.2 | 0.00 | 0.00 | 0.00 | 69 | 1027.0 |
| 20260509193222 | 8 | 90 | 0.0 | 4.8 | 0.00 | 0.00 | 0.00 | 68 | 1004.1 |
| 20260509192722 | 8 | 112 | 0.0 | 3.2 | 0.00 | 0.00 | 0.00 | 68 | 1057.9 |
| 20260509192222 | 8 | 112 | 1.6 | 3.2 | 0.00 | 0.00 | 0.00 | 68 | 1049.1 |
| 20260509191722 | 9 | 112 | 0.0 | 4.8 | 0.00 | 0.00 | 0.00 | 68 | 937.6 |
| 20260509191222 | 9 | 135 | 3.2 | 4.8 | 0.00 | 0.00 | 0.00 | 67 | 942.2 |
| 20260509190722 | 9 | 67 | 0.0 | 3.2 | 0.00 | 0.00 | 0.00 | 66 | 1081.5 |
| 20260509190321 | 9 | 112 | 1.6 | 4.8 | 0.00 | 0.00 | 0.00 | 66 | 1094.1 |
| 20260509190222 | 9 | 67 | 1.6 | 4.8 | 0.00 | 0.00 | 0.00 | 66 | 1042.8 |
| 20260509185723 | 10 | 112 | 1.6 | 3.2 | 0.00 | 0.00 | 0.00 | 65 | 964.9 |
| 20260509185222 | 10 | 112 | 3.2 | 3.2 | 0.00 | 0.00 | 0.00 | 65 | 1083.7 |
| 20260509184722 | 10 | 67 | 0.0 | 3.2 | 0.00 | 0.00 | 0.00 | 64 | 1053.5 |
| 20260509184222 | 10 | 135 | 3.2 | 3.2 | 0.00 | 0.00 | 0.00 | 63 | 1039.1 |
| 20260509183723 | 10 | 112 | 0.0 | 3.2 | 0.00 | 0.00 | 0.00 | 62 | 1046.0 |
| 20260509183222 | 11 | 112 | 0.0 | 3.2 | 0.00 | 0.00 | 0.00 | 62 | 1019.7 |
| 20260509183021 | 11 | 112 | 0.0 | 3.2 | 0.00 | 0.00 | 0.00 | 62 | 1049.0 |
| 20260509182722 | 11 | 112 | 0.0 | 3.2 | 0.00 | 0.00 | 0.00 | 61 | 923.5 |
| 20260509182222 | 11 | 67 | 3.2 | 3.2 | 0.00 | 0.00 | 0.00 | 60 | 1042.8 |
| 20260509181722 | 11 | 67 | 3.2 | 4.8 | 0.00 | 0.00 | 0.00 | 60 | 972.7 |
| 20260509181222 | 12 | 112 | 3.2 | 6.4 | 0.00 | 0.00 | 0.00 | 59 | 1087.8 |
| 20260509180722 | 12 | 67 | 3.2 | 4.8 | 0.00 | 0.00 | 0.00 | 58 | 946.6 |
| 20260509180222 | 12 | 90 | 3.2 | 6.4 | 0.00 | 0.00 | 0.00 | 57 | 1010.3 |
| 20260509175721 | 12 | 67 | 4.8 | 8.0 | 0.00 | 0.00 | 0.00 | 56 | 1009.9 |
| 20260509175222 | 12 | 90 | 1.6 | 9.7 | 0.00 | 0.00 | 0.00 | 56 | 1032.9 |
| 20260509174722 | 12 | 67 | 6.4 | 12.9 | 0.00 | 0.00 | 0.00 | 56 | 1021.8 |
| 20260509174231 | 13 | 22 | 12.9 | 12.9 | 0.00 | 0.00 | 0.00 | 55 | 1012.8 |
| 20260509174223 | 13 | 22 | 12.9 | 12.9 | 0.00 | 0.00 | 0.00 | 55 | 1012.8 |
| 20260509173722 | 13 | 45 | 6.4 | 9.7 | 0.00 | 0.00 | 0.00 | 55 | 961.2 |
| 20260509173222 | 13 | 22 | 8.0 | 9.7 | 0.00 | 0.00 | 0.00 | 55 | 932.6 |
| 20260509172722 | 13 | 22 | 8.0 | 11.3 | 0.00 | 0.00 | 0.00 | 55 | 1035.6 |
| 20260509172421 | 13 | 67 | 8.0 | 14.5 | 0.00 | 0.00 | 0.00 | 55 | 1017.8 |
| 20260509172222 | 13 | 90 | 6.4 | 17.7 | 0.00 | 0.00 | 0.00 | 55 | 1010.4 |
| 20260509171722 | 13 | 90 | 11.3 | 17.7 | 0.00 | 0.00 | 0.00 | 55 | 979.8 |
| 20260509171222 | 14 | 67 | 14.5 | 16.1 | 0.00 | 0.00 | 0.00 | 55 | 1045.8 |
| 20260509170722 | 14 | 45 | 8.0 | 17.7 | 0.00 | 0.00 | 0.00 | 55 | 959.0 |
| 20260509170222 | 14 | 45 | 14.5 | 19.3 | 0.00 | 0.00 | 0.00 | 55 | 1009.3 |
| 20260509165722 | 14 | 22 | 9.7 | 16.1 | 0.00 | 0.00 | 0.00 | 55 | 1041.3 |
| 20260509165222 | 14 | 22 | 11.3 | 17.7 | 0.00 | 0.00 | 0.00 | 55 | 1061.6 |
| 20260509165121 | 14 | 22 | 12.9 | 17.7 | 0.00 | 0.00 | 0.00 | 54 | 997.8 |
| 20260509164722 | 14 | 22 | 6.4 | 16.1 | 0.00 | 0.00 | 0.00 | 54 | 1007.3 |
| 20260509164222 | 13 | 22 | 6.4 | 14.5 | 0.00 | 0.00 | 0.00 | 54 | 1033.4 |
| 20260509163722 | 14 | 22 | 3.2 | 14.5 | 0.00 | 0.00 | 0.00 | 54 | 1084.7 |
| 20260509163222 | 14 | 0 | 12.9 | 12.9 | 0.00 | 0.00 | 0.00 | 54 | 1013.5 |
| 20260509162722 | 14 | 337 | 4.8 | 12.9 | 0.00 | 0.00 | 0.00 | 54 | 1039.7 |
| 20260509162222 | 14 | 22 | 8.0 | 11.3 | 0.00 | 0.00 | 0.00 | 54 | 1090.9 |
| 20260509161821 | 14 | 22 | 8.0 | 14.5 | 0.00 | 0.00 | 0.00 | 53 | 997.8 |
| 20260509161722 | 14 | 0 | 3.2 | 14.5 | 0.00 | 0.00 | 0.00 | 53 | 1055.4 |
| 20260509161222 | 14 | 45 | 6.4 | 12.9 | 0.00 | 0.00 | 0.00 | 53 | 1036.5 |
| 20260509160722 | 15 | 0 | 6.4 | 19.3 | 0.00 | 0.00 | 0.00 | 52 | 914.2 |
| 20260509160222 | 15 | 22 | 16.1 | 16.1 | 0.00 | 0.00 | 0.00 | 52 | 965.4 |
| 20260509155722 | 14 | 0 | 8.0 | 19.3 | 0.00 | 0.00 | 0.00 | 51 | 1039.7 |
| 20260509155223 | 14 | 0 | 4.8 | 17.7 | 0.00 | 0.00 | 0.00 | 51 | 1087.8 |
| 20260509154722 | 14 | 0 | 9.7 | 16.1 | 0.00 | 0.00 | 0.00 | 51 | 1033.4 |
| 20260509154521 | 14 | 337 | 9.7 | 16.1 | 0.00 | 0.00 | 0.00 | 51 | 1052.2 |
| 20260509154222 | 14 | 22 | 4.8 | 14.5 | 0.00 | 0.00 | 0.00 | 50 | 1049.1 |
| 20260509153722 | 14 | 337 | 4.8 | 22.5 | 0.00 | 0.00 | 0.00 | 50 | 1007.3 |
| 20260509153223 | 15 | 0 | 12.9 | 17.7 | 0.00 | 0.00 | 0.00 | 50 | 997.9 |
| 20260509152722 | 15 | 337 | 6.4 | 20.9 | 0.00 | 0.00 | 0.00 | 49 | 1036.5 |
| 20260509152222 | 15 | 337 | 16.1 | 24.1 | 0.00 | 0.00 | 0.00 | 49 | 994.7 |
| 20260509151722 | 15 | 22 | 19.3 | 19.3 | 0.00 | 0.00 | 0.00 | 49 | 1072.1 |
| 20260509151221 | 15 | 337 | 8.0 | 19.3 | 0.00 | 0.00 | 0.00 | 48 | 1069.0 |
| 20260509150722 | 15 | 315 | 12.9 | 24.1 | 0.00 | 0.00 | 0.00 | 49 | 1059.5 |
| 20260509150222 | 15 | 315 | 24.1 | 27.4 | 0.00 | 0.00 | 0.00 | 49 | 952.9 |
| 20260509145722 | 15 | 45 | 8.0 | 20.9 | 0.00 | 0.00 | 0.00 | 51 | 1078.4 |
| 20260509145222 | 15 | 270 | 8.0 | 20.9 | 0.00 | 0.00 | 0.00 | 52 | 1075.2 |
| 20260509144722 | 15 | 270 | 1.6 | 17.7 | 0.00 | 0.00 | 0.00 | 55 | 1075.3 |
| 20260509144222 | 14 | 315 | 16.1 | 16.1 | 0.00 | 0.00 | 0.00 | 57 | 1087.8 |
| 20260509143921 | 14 | 315 | 6.4 | 12.9 | 0.00 | 0.00 | 0.00 | 57 | 1084.7 |
| 20260509143722 | 14 | 0 | 3.2 | 12.9 | 0.00 | 0.00 | 0.00 | 57 | 1039.7 |
| 20260509143222 | 13 | 22 | 6.4 | 9.7 | 0.00 | 0.00 | 0.00 | 57 | 1042.8 |
| 20260509142722 | 13 | 22 | 3.2 | 14.5 | 0.00 | 0.00 | 0.00 | 56 | 1078.4 |
| 20260509142222 | 13 | 22 | 6.4 | 16.1 | 0.00 | 0.00 | 0.00 | 56 | 1033.4 |
| 20260509141732 | 14 | 67 | 4.8 | 12.9 | 0.00 | 0.00 | 0.00 | 56 | 1042.1 |
| 20260509141722 | 14 | 67 | 4.8 | 12.9 | 0.00 | 0.00 | 0.00 | 56 | 1042.8 |
| 20260509141222 | 14 | 0 | 3.2 | 11.3 | 0.00 | 0.00 | 0.00 | 55 | 1046.0 |
| 20260509140722 | 14 | 0 | 9.7 | 17.7 | 0.00 | 0.00 | 0.00 | 54 | 1027.1 |
| 20260509140622 | 14 | 337 | 11.3 | 17.7 | 0.00 | 0.00 | 0.00 | 54 | 1065.8 |
| 20260509140222 | 14 | 292 | 9.7 | 14.5 | 0.00 | 0.00 | 0.00 | 54 | 1068.9 |
| 20260509135722 | 14 | 0 | 3.2 | 9.7 | 0.00 | 0.00 | 0.00 | 54 | 1069.0 |
| 20260509135222 | 14 | 337 | 3.2 | 14.5 | 0.00 | 0.00 | 0.00 | 53 | 1059.5 |
| 20260509134722 | 15 | 337 | 12.9 | 19.3 | 0.00 | 0.00 | 0.00 | 52 | 1062.7 |
| 20260509134223 | 15 | 315 | 14.5 | 17.7 | 0.00 | 0.00 | 0.00 | 51 | 1021.9 |
| 20260509133723 | 15 | 270 | 14.5 | 19.3 | 0.00 | 0.00 | 0.00 | 50 | 1028.6 |
| 20260509133322 | 16 | 292 | 11.3 | 19.3 | 0.00 | 0.00 | 0.00 | 51 | 1032.3 |
| 20260509133223 | 16 | 270 | 12.9 | 16.1 | 0.00 | 0.00 | 0.00 | 51 | 1016.6 |
| 20260509132723 | 16 | 270 | 16.1 | 16.1 | 0.00 | 0.00 | 0.00 | 50 | 1016.9 |
| 20260509132223 | 16 | 0 | 8.0 | 11.3 | 0.00 | 0.00 | 0.00 | 50 | 1010.8 |
| 20260509131723 | 16 | 270 | 11.3 | 17.7 | 0.00 | 0.00 | 0.00 | 50 | 1018.8 |
| 20260509131223 | 16 | 292 | 9.7 | 14.5 | 0.00 | 0.00 | 0.00 | 50 | 1030.8 |
| 20260509130723 | 16 | 337 | 11.3 | 20.9 | 0.00 | 0.00 | 0.00 | 50 | 1032.8 |
| 20260509130223 | 16 | 292 | 1.6 | 14.5 | 0.00 | 0.00 | 0.00 | 50 | 1038.3 |
| 20260509130022 | 16 | 270 | 4.8 | 14.5 | 0.00 | 0.00 | 0.00 | 49 | 1047.4 |
| 20260509125723 | 16 | 292 | 4.8 | 16.1 | 0.00 | 0.00 | 0.00 | 49 | 1028.0 |
| 20260509125223 | 16 | 315 | 1.6 | 16.1 | 0.00 | 0.00 | 0.00 | 50 | 1044.2 |
| 20260509124723 | 16 | 337 | 4.8 | 12.9 | 0.00 | 0.00 | 0.00 | 51 | 1029.6 |
| 20260509124223 | 16 | 270 | 6.4 | 16.1 | 0.00 | 0.00 | 0.00 | 50 | 1034.8 |
| 20260509123723 | 16 | 315 | 9.7 | 17.7 | 0.00 | 0.00 | 0.00 | 50 | 1069.7 |
| 20260509123223 | 16 | 270 | 4.8 | 6.4 | 0.00 | 0.00 | 0.00 | 53 | 1062.6 |
| 20260509122722 | 16 | 292 | 0.0 | 4.8 | 0.00 | 0.00 | 0.00 | 53 | 1065.8 |
| 20260509122223 | 16 | 337 | 3.2 | 4.8 | 0.00 | 0.00 | 0.00 | 53 | 1056.3 |
| 20260509121723 | 15 | 0 | 3.2 | 9.7 | 0.00 | 0.00 | 0.00 | 53 | 1048.9 |
| 20260509121223 | 15 | 0 | 4.8 | 9.7 | 0.00 | 0.00 | 0.00 | 53 | 1022.2 |
| 20260509120723 | 15 | 337 | 4.8 | 12.9 | 0.00 | 0.00 | 0.00 | 52 | 1043.6 |
| 20260509120223 | 16 | 0 | 4.8 | 9.7 | 0.00 | 0.00 | 0.00 | 52 | 1027.2 |
| 20260509115723 | 15 | 315 | 0.0 | 14.5 | 0.00 | 0.00 | 0.00 | 52 | 1031.3 |
| 20260509115422 | 15 | 22 | 4.8 | 12.9 | 0.00 | 0.00 | 0.00 | 52 | 1013.3 |
| 20260509115223 | 15 | 22 | 9.7 | 12.9 | 0.00 | 0.00 | 0.00 | 52 | 1052.3 |
| 20260509114723 | 15 | 337 | 0.0 | 16.1 | 0.00 | 0.00 | 0.00 | 52 | 1013.3 |
| 20260509114223 | 15 | 292 | 16.1 | 16.1 | 0.00 | 0.00 | 0.00 | 52 | 1023.2 |
| 20260509113723 | 15 | 0 | 12.9 | 12.9 | 0.00 | 0.00 | 0.00 | 53 | 1003.1 |
| 20260509113223 | 15 | 315 | 8.0 | 16.1 | 0.00 | 0.00 | 0.00 | 54 | 1042.8 |
| 20260509112723 | 15 | 0 | 4.8 | 12.9 | 0.00 | 0.00 | 0.00 | 55 | 1038.3 |
| 20260509112223 | 14 | 337 | 3.2 | 14.5 | 0.00 | 0.00 | 0.00 | 54 | 1036.1 |
| 20260509112122 | 15 | 0 | 9.7 | 14.5 | 0.00 | 0.00 | 0.00 | 54 | 1018.8 |
| 20260509111723 | 15 | 315 | 3.2 | 19.3 | 0.00 | 0.00 | 0.00 | 53 | 1028.9 |
| 20260509111223 | 15 | 292 | 16.1 | 17.7 | 0.00 | 0.00 | 0.00 | 52 | 1059.6 |
| 20260509110723 | 16 | 0 | 6.4 | 17.7 | 0.00 | 0.00 | 0.00 | 52 | 1072.1 |
| 20260509110223 | 16 | 0 | 4.8 | 12.9 | 0.00 | 0.00 | 0.00 | 53 | 1062.7 |
| 20260509105723 | 16 | 22 | 6.4 | 11.3 | 0.00 | 0.00 | 0.00 | 53 | 1060.0 |
| 20260509105223 | 15 | 0 | 14.5 | 14.5 | 0.00 | 0.00 | 0.00 | 55 | 1053.2 |
| 20260509104822 | 15 | 0 | 4.8 | 12.9 | 0.00 | 0.00 | 0.00 | 55 | 1042.0 |
| 20260509104723 | 15 | 0 | 11.3 | 12.9 | 0.00 | 0.00 | 0.00 | 56 | 1079.3 |
| 20260509104223 | 14 | 337 | 9.7 | 14.5 | 0.00 | 0.00 | 0.00 | 58 | 1040.6 |
| 20260509103723 | 13 | 337 | 6.4 | 14.5 | 0.00 | 0.00 | 0.00 | 60 | 1043.8 |
| 20260509103223 | 13 | 22 | 14.5 | 14.5 | 0.00 | 0.00 | 0.00 | 60 | 1043.7 |
| 20260509102723 | 12 | 0 | 6.4 | 16.1 | 0.00 | 0.00 | 0.00 | 61 | 1028.0 |
| 20260509102223 | 12 | 337 | 16.1 | 20.9 | 0.00 | 0.00 | 0.00 | 60 | 1044.2 |
| 20260509101723 | 12 | 22 | 12.9 | 22.5 | 0.00 | 0.00 | 0.00 | 59 | 1038.0 |
| 20260509101522 | 12 | 337 | 16.1 | 22.5 | 0.00 | 0.00 | 0.00 | 58 | 1012.0 |
| 20260509101223 | 12 | 0 | 16.1 | 20.9 | 0.00 | 0.00 | 0.00 | 58 | 1078.4 |
| 20260509100723 | 13 | 22 | 9.7 | 17.7 | 0.00 | 0.00 | 0.00 | 57 | 1066.1 |
| 20260509100223 | 13 | 0 | 12.9 | 16.1 | 0.00 | 0.00 | 0.00 | 56 | 1068.9 |
| 20260509095723 | 14 | 22 | 16.1 | 16.1 | 0.00 | 0.00 | 0.00 | 57 | 1067.5 |
| 20260509095223 | 13 | 0 | 11.3 | 22.5 | 0.00 | 0.00 | 0.00 | 57 | 1042.8 |
| 20260509094723 | 13 | 22 | 9.7 | 25.7 | 0.00 | 0.00 | 0.00 | 57 | 1078.4 |
| 20260509094222 | 13 | 45 | 9.7 | 27.4 | 0.00 | 0.00 | 0.00 | 56 | 1065.8 |
| 20260509093723 | 13 | 0 | 8.0 | 24.1 | 0.00 | 0.00 | 0.00 | 56 | 1090.9 |
| 20260509093223 | 14 | 45 | 14.5 | 24.1 | 0.00 | 0.00 | 0.00 | 55 | 1090.9 |
| 20260509092723 | 14 | 0 | 6.4 | 24.1 | 0.00 | 0.00 | 0.00 | 56 | 1090.9 |
| 20260509092223 | 14 | 45 | 11.3 | 24.1 | 0.00 | 0.00 | 0.00 | 57 | 1084.6 |
| 20260509091723 | 13 | 22 | 9.7 | 25.7 | 0.00 | 0.00 | 0.00 | 57 | 1052.2 |
| 20260509091223 | 13 | 22 | 8.0 | 25.7 | 0.00 | 0.00 | 0.00 | 58 | 1055.3 |
| 20260509090922 | 13 | 0 | 16.1 | 25.7 | 0.00 | 0.00 | 0.00 | 59 | 997.9 |
| 20260509090723 | 13 | 0 | 12.9 | 20.9 | 0.00 | 0.00 | 0.00 | 59 | 1094.1 |
| 20260509090223 | 13 | 135 | 3.2 | 20.9 | 0.00 | 0.00 | 0.00 | 59 | 1042.8 |
| 20260509085723 | 13 | 0 | 8.0 | 25.7 | 0.00 | 0.00 | 0.00 | 61 | 1078.4 |
| 20260509085223 | 13 | 22 | 3.2 | 14.5 | 0.00 | 0.00 | 0.00 | 61 | 1024.0 |
| 20260509084723 | 13 | 0 | 12.9 | 22.5 | 0.00 | 0.00 | 0.00 | 62 | 1097.2 |
| 20260509084223 | 13 | 225 | 3.2 | 17.7 | 0.00 | 0.00 | 0.00 | 62 | 1030.1 |
| 20260509083723 | 12 | 22 | 9.7 | 24.1 | 0.00 | 0.00 | 0.00 | 64 | 1084.7 |
| 20260509083622 | 12 | 22 | 19.3 | 24.1 | 0.00 | 0.00 | 0.00 | 64 | 1075.2 |
| 20260509083223 | 12 | 337 | 12.9 | 24.1 | 0.00 | 0.00 | 0.00 | 65 | 1087.8 |
| 20260509082723 | 11 | 337 | 14.5 | 16.1 | 0.00 | 0.00 | 0.00 | 69 | 1051.2 |
| 20260509082223 | 10 | 0 | 16.1 | 19.3 | 0.00 | 0.00 | 0.00 | 70 | 1049.1 |
| 20260509081723 | 10 | 337 | 12.9 | 19.3 | 0.00 | 0.00 | 0.00 | 69 | 1008.1 |
| 20260509081223 | 11 | 22 | 12.9 | 25.7 | 0.00 | 0.00 | 0.00 | 68 | 1087.8 |
| 20260509080733 | 11 | 22 | 19.3 | 20.9 | 0.00 | 0.00 | 0.00 | 68 | 976.0 |
| 20260509080723 | 11 | 22 | 20.9 | 20.9 | 0.00 | 0.00 | 0.00 | 68 | 976.0 |
| 20260509080322 | 11 | 337 | 4.8 | 17.7 | 0.00 | 0.00 | 0.00 | 68 | 1052.1 |
| 20260509080223 | 11 | 337 | 11.3 | 17.7 | 0.00 | 0.00 | 0.00 | 68 | 999.5 |
| 20260509075723 | 11 | 337 | 8.0 | 22.5 | 0.00 | 0.00 | 0.00 | 68 | 1056.9 |
| 20260509075223 | 11 | 0 | 8.0 | 11.3 | 0.00 | 0.00 | 0.00 | 68 | 1001.0 |
| 20260509074723 | 11 | 337 | 6.4 | 19.3 | 0.00 | 0.00 | 0.00 | 67 | 1016.7 |
| 20260509074223 | 11 | 0 | 8.0 | 19.3 | 0.00 | 0.00 | 0.00 | 67 | 1058.5 |
| 20260509073723 | 12 | 0 | 12.9 | 20.9 | 0.00 | 0.00 | 0.00 | 67 | 1010.4 |
| 20260509073223 | 12 | 22 | 11.3 | 19.3 | 0.00 | 0.00 | 0.00 | 67 | 1052.2 |
| 20260509073022 | 12 | 0 | 9.7 | 14.5 | 0.00 | 0.00 | 0.00 | 67 | 1056.3 |
| 20260509072723 | 12 | 45 | 9.7 | 14.5 | 0.00 | 0.00 | 0.00 | 68 | 1045.9 |
| 20260509072223 | 12 | 337 | 4.8 | 16.1 | 0.00 | 0.00 | 0.00 | 70 | 1084.6 |
| 20260509071724 | 11 | 22 | 9.7 | 16.1 | 0.00 | 0.00 | 0.00 | 71 | 1010.4 |
| 20260509071223 | 11 | 337 | 9.7 | 19.3 | 0.00 | 0.00 | 0.00 | 71 | 976.4 |
| 20260509070723 | 11 | 337 | 6.4 | 16.1 | 0.00 | 0.00 | 0.00 | 72 | 1007.2 |
| 20260509070223 | 11 | 315 | 9.7 | 20.9 | 0.00 | 0.00 | 0.00 | 73 | 994.5 |
| 20260509065722 | 10 | 0 | 11.3 | 19.3 | 0.00 | 0.00 | 0.00 | 73 | 1050.7 |
| 20260509065223 | 10 | 22 | 8.0 | 19.3 | 0.00 | 0.00 | 0.00 | 73 | 1046.0 |
| 20260509064723 | 10 | 337 | 16.1 | 19.3 | 0.00 | 0.00 | 0.00 | 73 | 1055.4 |
| 20260509064223 | 10 | 337 | 12.9 | 20.9 | 0.00 | 0.00 | 0.00 | 72 | 1055.4 |
| 20260509063723 | 10 | 45 | 6.4 | 19.3 | 0.00 | 0.00 | 0.00 | 73 | 968.5 |
| 20260509063223 | 10 | 0 | 12.9 | 17.7 | 0.00 | 0.00 | 0.00 | 73 | 1019.8 |
| 20260509062723 | 10 | 0 | 16.1 | 19.3 | 0.00 | 0.00 | 0.00 | 73 | 1000.0 |
| 20260509062422 | 10 | 0 | 9.7 | 19.3 | 0.00 | 0.00 | 0.00 | 73 | 1010.4 |
| 20260509062223 | 11 | 337 | 14.5 | 19.3 | 0.00 | 0.00 | 0.00 | 73 | 1042.8 |
| 20260509061723 | 11 | 292 | 11.3 | 11.3 | 0.00 | 0.00 | 0.00 | 73 | 971.5 |
| 20260509061223 | 11 | 45 | 6.4 | 17.7 | 0.00 | 0.00 | 0.00 | 73 | 1045.9 |